When you browse on this site, cookies collect data to enhance your experience and personalize the content and advertising you see.
Visit our Privacy Policy to learn more. By continuing to use the site, you agree to this use of cookies and data.
  • în România
  • Lista ţărilor
  • Pe 7 zile
  • Temperatura apei
  • Meteo pe hartă
  • Widget-uri
  • user-avatar
    Intrare

    Meteo pe oră la Malaga

    Astăzi, 22 Noiembrie, Vineri

    Timp Temperatura Precipitaţii Vânt Presiune Umiditate
    00:00 +15°C° 0.2 mm 2 m/s 755 mmHg 95%
    01:00 +14°C° 0.7 mm 3 m/s 754 mmHg 96%
    02:00 +14°C° 0.7 mm 4 m/s 754 mmHg 96%
    03:00 +14°C° 0.7 mm 4 m/s 753 mmHg 97%
    04:00 +15°C° 2.3 mm 4 m/s 753 mmHg 97%
    05:00 +15°C° 2.3 mm 4 m/s 753 mmHg 98%
    06:00 +15°C° 2.3 mm 4 m/s 753 mmHg 98%
    07:00 +15°C° 2.1 mm 4 m/s 753 mmHg 98%
    08:00 +15°C° 2.1 mm 4 m/s 752 mmHg 98%
    09:00 +15°C° 2.1 mm 4 m/s 752 mmHg 97%
    10:00 +15°C° 1.8 mm 4 m/s 752 mmHg 97%
    11:00 +15°C° 1.8 mm 4 m/s 752 mmHg 97%
    12:00 +15°C° 1.8 mm 4 m/s 751 mmHg 97%
    13:00 +16°C° 0.4 mm 5 m/s 750 mmHg 96%
    14:00 +16°C° 0.4 mm 5 m/s 749 mmHg 96%
    15:00 +16°C° 0.4 mm 5 m/s 748 mmHg 95%
    16:00 +16°C° 1.1 mm 6 m/s 748 mmHg 96%
    17:00 +16°C° 1.1 mm 6 m/s 748 mmHg 96%
    18:00 +16°C° 1.1 mm 7 m/s 747 mmHg 97%
    19:00 +16°C° 2.3 mm 6 m/s 748 mmHg 94%
    20:00 +17°C° 2.3 mm 6 m/s 749 mmHg 91%
    21:00 +17°C° 2.3 mm 5 m/s 749 mmHg 88%
    22:00 +16°C° 0 mm 6 m/s 749 mmHg 86%
    23:00 +15°C° 0 mm 6 m/s 750 mmHg 83%

    Mâine, 23 Noiembrie, Sâmbătă

    Timp Temperatura Precipitaţii Vânt Presiune Umiditate
    00:00 +14°C° 0 mm 6 m/s 750 mmHg 81%
    01:00 +14°C° 0 mm 6 m/s 750 mmHg 80%
    02:00 +14°C° 0 mm 6 m/s 750 mmHg 80%
    03:00 +14°C° 0 mm 7 m/s 751 mmHg 79%
    04:00 +14°C° 0.1 mm 7 m/s 751 mmHg 78%
    05:00 +12°C° 0.1 mm 7 m/s 752 mmHg 78%
    06:00 +12°C° 0.1 mm 7 m/s 752 mmHg 78%
    07:00 +12°C° 0.1 mm 7 m/s 753 mmHg 75%
    08:00 +14°C° 0.1 mm 7 m/s 754 mmHg 72%
    09:00 +14°C° 0.1 mm 7 m/s 755 mmHg 70%
    10:00 +15°C° 0 mm 7 m/s 755 mmHg 65%
    11:00 +15°C° 0 mm 7 m/s 755 mmHg 61%
    12:00 +16°C° 0 mm 7 m/s 755 mmHg 56%
    13:00 +16°C° 0 mm 7 m/s 755 mmHg 57%
    14:00 +16°C° 0 mm 7 m/s 755 mmHg 57%
    15:00 +16°C° 0 mm 7 m/s 755 mmHg 57%
    16:00 +15°C° 0 mm 6 m/s 756 mmHg 62%
    17:00 +14°C° 0 mm 6 m/s 756 mmHg 66%
    18:00 +13°C° 0 mm 5 m/s 757 mmHg 71%
    19:00 +13°C° 0 mm 5 m/s 758 mmHg 72%
    20:00 +12°C° 0 mm 4 m/s 758 mmHg 73%
    21:00 +12°C° 0 mm 4 m/s 759 mmHg 74%
    22:00 +12°C° 0 mm 4 m/s 759 mmHg 76%
    23:00 +11°C° 0 mm 4 m/s 759 mmHg 77%

    Poimâine, 24 Noiembrie, Duminică

    Timp Temperatura Precipitaţii Vânt Presiune Umiditate
    00:00 +11°C° 0 mm 4 m/s 760 mmHg 78%
    01:00 +11°C° 0 mm 4 m/s 760 mmHg 79%
    02:00 +11°C° 0 mm 4 m/s 760 mmHg 80%
    03:00 +10°C° 0 mm 3 m/s 760 mmHg 81%
    04:00 +10°C° 0 mm 3 m/s 760 mmHg 81%
    05:00 +10°C° 0 mm 3 m/s 760 mmHg 81%
    06:00 +10°C° 0 mm 4 m/s 761 mmHg 82%
    07:00 +11°C° 0 mm 4 m/s 761 mmHg 79%
    08:00 +12°C° 0 mm 4 m/s 762 mmHg 75%
    09:00 +12°C° 0 mm 4 m/s 762 mmHg 72%
    10:00 +14°C° 0 mm 4 m/s 762 mmHg 67%
    11:00 +15°C° 0 mm 4 m/s 762 mmHg 61%
    12:00 +17°C° 0 mm 4 m/s 762 mmHg 56%
    13:00 +16°C° 0 mm 5 m/s 762 mmHg 56%
    14:00 +16°C° 0 mm 5 m/s 761 mmHg 56%
    15:00 +16°C° 0 mm 5 m/s 761 mmHg 57%
    16:00 +15°C° 0 mm 5 m/s 761 mmHg 62%
    17:00 +14°C° 0 mm 4 m/s 762 mmHg 67%
    18:00 +13°C° 0 mm 4 m/s 762 mmHg 73%
    19:00 +13°C° 0 mm 4 m/s 762 mmHg 73%
    20:00 +13°C° 0 mm 4 m/s 763 mmHg 74%
    21:00 +13°C° 0 mm 4 m/s 763 mmHg 74%
    22:00 +12°C° 0 mm 4 m/s 763 mmHg 76%
    23:00 +12°C° 0 mm 4 m/s 763 mmHg 77%

    25 Noiembrie, Luni

    Timp Temperatura Precipitaţii Vânt Presiune Umiditate
    00:00 +12°C° 0 mm 4 m/s 763 mmHg 79%
    01:00 +12°C° 0 mm 3 m/s 763 mmHg 80%
    02:00 +12°C° 0 mm 3 m/s 763 mmHg 81%
    03:00 +12°C° 0 mm 3 m/s 763 mmHg 83%
    04:00 +12°C° 0 mm 3 m/s 763 mmHg 83%
    05:00 +12°C° 0 mm 3 m/s 763 mmHg 83%
    06:00 +13°C° 0 mm 2 m/s 763 mmHg 83%
    07:00 +14°C° 0 mm 2 m/s 764 mmHg 79%
    08:00 +15°C° 0 mm 2 m/s 764 mmHg 76%
    09:00 +16°C° 0 mm 2 m/s 765 mmHg 72%
    10:00 +17°C° 0 mm 2 m/s 764 mmHg 67%
    11:00 +19°C° 0 mm 2 m/s 764 mmHg 63%
    12:00 +20°C° 0 mm 2 m/s 764 mmHg 58%
    13:00 +20°C° 0 mm 2 m/s 764 mmHg 58%
    14:00 +21°C° 0 mm 2 m/s 763 mmHg 59%
    15:00 +21°C° 0 mm 2 m/s 763 mmHg 59%
    16:00 +19°C° 0 mm 2 m/s 763 mmHg 65%
    17:00 +18°C° 0 mm 2 m/s 763 mmHg 71%
    18:00 +18°C° 0 mm 1 m/s 763 mmHg 78%
    19:00 +16°C° 0 mm 1 m/s 763 mmHg 78%
    20:00 +16°C° 0 mm 1 m/s 763 mmHg 78%
    21:00 +16°C° 0 mm 1 m/s 763 mmHg 78%
    22:00 +16°C° 0 mm 1 m/s 763 mmHg 78%
    23:00 +16°C° 0 mm 1 m/s 763 mmHg 78%

    26 Noiembrie, Marţi

    Timp Temperatura Precipitaţii Vânt Presiune Umiditate
    00:00 +16°C° 0 mm 1 m/s 763 mmHg 78%
    01:00 +16°C° 0 mm 1 m/s 763 mmHg 78%
    02:00 +16°C° 0 mm 1 m/s 762 mmHg 78%
    03:00 +16°C° 0 mm 1 m/s 762 mmHg 77%
    04:00 +15°C° 0 mm 1 m/s 762 mmHg 77%
    05:00 +14°C° 0 mm 0 m/s 762 mmHg 77%
    06:00 +14°C° 0 mm 0 m/s 762 mmHg 77%
    07:00 +15°C° 0 mm 0 m/s 762 mmHg 74%
    08:00 +16°C° 0 mm 0 m/s 762 mmHg 70%
    09:00 +17°C° 0 mm 0 m/s 762 mmHg 66%
    10:00 +20°C° 0 mm 1 m/s 762 mmHg 63%
    11:00 +21°C° 0 mm 1 m/s 762 mmHg 59%
    12:00 +22°C° 0 mm 1 m/s 761 mmHg 56%
    13:00 +22°C° 0 mm 1 m/s 761 mmHg 57%
    14:00 +21°C° 0 mm 2 m/s 761 mmHg 57%
    15:00 +21°C° 0 mm 2 m/s 760 mmHg 58%
    16:00 +20°C° 0 mm 2 m/s 760 mmHg 64%
    17:00 +19°C° 0 mm 2 m/s 760 mmHg 70%
    18:00 +18°C° 0 mm 2 m/s 760 mmHg 76%
    19:00 +17°C° 0 mm 2 m/s 761 mmHg 77%
    20:00 +17°C° 0 mm 2 m/s 761 mmHg 78%
    21:00 +17°C° 0 mm 2 m/s 761 mmHg 79%
    22:00 +17°C° 0 mm 2 m/s 761 mmHg 79%
    23:00 +17°C° 0 mm 2 m/s 761 mmHg 79%

    27 Noiembrie, Miercuri

    Timp Temperatura Precipitaţii Vânt Presiune Umiditate
    00:00 +16°C° 0 mm 2 m/s 761 mmHg 80%
    01:00 +16°C° 0 mm 2 m/s 761 mmHg 80%
    02:00 +16°C° 0 mm 2 m/s 761 mmHg 79%
    03:00 +16°C° 0 mm 2 m/s 760 mmHg 79%
    04:00 +16°C° 0 mm 2 m/s 760 mmHg 81%
    05:00 +16°C° 0 mm 3 m/s 760 mmHg 83%
    06:00 +16°C° 0 mm 3 m/s 760 mmHg 84%
    07:00 +17°C° 0 mm 3 m/s 761 mmHg 82%
    08:00 +17°C° 0 mm 3 m/s 761 mmHg 79%
    09:00 +18°C° 0 mm 3 m/s 761 mmHg 77%
    10:00 +20°C° 0 mm 3 m/s 761 mmHg 71%
    11:00 +21°C° 0 mm 3 m/s 761 mmHg 66%
    12:00 +22°C° 0 mm 3 m/s 760 mmHg 60%
    13:00 +22°C° 0 mm 4 m/s 760 mmHg 61%
    14:00 +22°C° 0 mm 4 m/s 760 mmHg 62%
    15:00 +22°C° 0 mm 4 m/s 759 mmHg 63%
    16:00 +21°C° 0 mm 4 m/s 760 mmHg 69%
    17:00 +20°C° 0 mm 4 m/s 760 mmHg 75%
    18:00 +18°C° 0 mm 3 m/s 761 mmHg 81%
    19:00 +18°C° 0 mm 3 m/s 761 mmHg 82%
    20:00 +17°C° 0 mm 3 m/s 761 mmHg 83%
    21:00 +17°C° 0 mm 2 m/s 762 mmHg 84%
    22:00 +17°C° 0 mm 3 m/s 762 mmHg 84%
    23:00 +16°C° 0 mm 3 m/s 762 mmHg 84%
    Arată mai mult